TimeMDT,TemperatureF,Dew PointF,Humidity,Sea Level PressureIn,VisibilityMPH,Wind Direction,Wind SpeedMPH,Gust SpeedMPH,PrecipitationIn,Events,Conditions,WindDirDegrees,DateUTC
12:54 AM,42.1,21.9,45,30.13,10.0,SW,11.5,-,N/A,,Clear,220,2013-10-27 06:54:00
1:54 AM,39.9,21.9,49,30.12,10.0,SW,10.4,-,N/A,,Clear,220,2013-10-27 07:54:00
2:54 AM,37.9,21.9,53,30.09,10.0,SW,10.4,-,N/A,,Clear,220,2013-10-27 08:54:00
3:54 AM,37.0,19.9,50,30.08,10.0,SW,9.2,-,N/A,,Clear,230,2013-10-27 09:54:00
4:54 AM,37.0,19.9,50,30.05,10.0,SW,10.4,-,N/A,,Clear,230,2013-10-27 10:54:00
5:54 AM,36.0,19.9,52,30.06,10.0,SW,6.9,-,N/A,,Clear,230,2013-10-27 11:54:00
6:54 AM,33.1,19.0,56,30.09,10.0,West,4.6,-,N/A,,Clear,260,2013-10-27 12:54:00
7:54 AM,35.1,19.0,52,30.07,10.0,West,4.6,-,N/A,,Clear,270,2013-10-27 13:54:00
8:54 AM,39.9,21.9,49,30.05,10.0,Calm,Calm,-,N/A,,Clear,0,2013-10-27 14:54:00
9:54 AM,44.1,24.1,45,30.01,10.0,NE,3.5,-,N/A,,Clear,40,2013-10-27 15:54:00
10:54 AM,48.0,25.0,41,29.96,10.0,Calm,Calm,-,N/A,,Clear,0,2013-10-27 16:54:00
11:54 AM,55.0,25.0,31,29.90,10.0,North,5.8,-,N/A,,Clear,350,2013-10-27 17:54:00
12:54 PM,59.0,19.0,21,29.84,10.0,West,10.4,-,N/A,,Clear,270,2013-10-27 18:54:00
1:54 PM,61.0,17.1,18,29.78,10.0,West,21.9,27.6,N/A,,Clear,260,2013-10-27 19:54:00
2:54 PM,61.0,18.0,19,29.76,10.0,WNW,13.8,25.3,N/A,,Clear,290,2013-10-27 20:54:00
3:54 PM,59.0,18.0,20,29.76,10.0,SW,5.8,-,N/A,,Scattered Clouds,230,2013-10-27 21:54:00
4:54 PM,57.9,18.0,21,29.74,10.0,SSW,5.8,-,N/A,,Overcast,200,2013-10-27 22:54:00
5:54 PM,55.0,19.0,24,29.75,10.0,SSE,9.2,-,N/A,,Overcast,150,2013-10-27 23:54:00
6:54 PM,51.1,19.9,29,29.79,10.0,SSE,9.2,-,N/A,,Mostly Cloudy,160,2013-10-28 00:54:00
7:54 PM,48.9,21.9,35,29.79,10.0,South,8.1,-,N/A,,Scattered Clouds,170,2013-10-28 01:54:00
8:54 PM,50.0,21.9,33,29.76,10.0,SSE,9.2,-,N/A,,Overcast,160,2013-10-28 02:54:00
9:54 PM,48.9,23.0,36,29.74,10.0,SSE,10.4,-,N/A,,Overcast,160,2013-10-28 03:54:00
10:54 PM,48.0,23.0,37,29.72,10.0,SSE,8.1,-,N/A,,Clear,150,2013-10-28 04:54:00
11:54 PM,46.0,23.0,40,29.68,10.0,Variable,4.6,-,N/A,,Partly Cloudy,0,2013-10-28 05:54:00